Location: *
(33.8649°S, 62.1526°E)
Time: 13:03:18
(UTC+00:00)

CZ-2C R/B - Pass Details

Date: 17 January 2021
Orbit: 389 x 584 km, 35.0° (Epoch: 02 March)

Event Time Altitude Azimuth Distance (km) Brightness Sun altitude
Rises 16:40:31 0° 269° (W) 2,571 5.5 -17.5°
Reaches altitude 10° 16:42:40 10° 267° (W) 1,724 4.6 -17.8°
Maximum altitude 16:46:38 75° 182° (S) 557 1.3 -18.4°
Enters shadow 16:48:33 31° 101° (ESE) 971 2.2 -18.7°
